Location: Bannatyne
(13.0833°N, 59.5333°W)
Time: 01:14:09
(UTC+00:00)

deb Explorer IX - Pass Details

Date: 25 January 2020
Orbit: 549 x 1099 km, 38.8° (Epoch: 19 February)

Event Time Altitude Azimuth Distance (km) Brightness Sun altitude
Rises 20:51:58 0° 184° (S) 3,163 ? 13.6°
Reaches altitude 10° 20:56:19 10° 150° (SSE) 2,395 ? 12.7°
Maximum altitude 20:57:59 11° 133° (SE) 2,364 ? 12.3°
Drops below altitude 10° 20:59:42 10° 116° (ESE) 2,511 ? 11.9°
Sets 21:04:39 0° 84° (E) 3,611 ? 10.8°
